Overview Statistics Trail Chart Weather Telemetry Raw packets
 

This is the latest recevied weather packets stored in our database for station/object HB9FHL-13. If no packets are shown the sender has not sent any weather packets the latest 10 day(s).

<< 103 104 105 106 107 108 109 >>
Time Temp. Humidity Pressure Rain* Wind** Luminosity Snow
1788012521 21.11° C - 1018.3 hPa 0 mm - - -
1788012224 20.56° C - 1013.9 hPa 0 mm - - -
1788012221 20.56° C - 1013.9 hPa 0 mm - - -
1788011923 21.67° C - 1019.7 hPa 0 mm - - -
1788011922 21.67° C - 1019.7 hPa 0 mm - - -
1788011620 20.56° C - 1017.1 hPa 0 mm - - -
1788011379 21.11° C - 1017.3 hPa 0 mm - - -
1788011319 21.11° C - 1017.3 hPa 0 mm - - -
1788011025 20.56° C - 1014.8 hPa 0 mm - - -
1788011019 20.56° C - 1014.8 hPa 0 mm - - -
1788010722 21.11° C - 1020.8 hPa 0 mm - - -
1788010718 21.11° C - 1020.8 hPa 0 mm - - -
1788010418 21.67° C - 1016.6 hPa 0 mm - - -
1788010117 21.11° C - 1018.5 hPa 0 mm - - -
1788009820 21.11° C - 1018.2 hPa 0 mm - - -
1788009815 21.11° C - 1018.2 hPa 0 mm - - -
1788009516 21.11° C - 1013.6 hPa 0 mm - - -
1788009513 21.11° C - 1013.6 hPa 0 mm - - -
1788009213 20.56° C - 1015.8 hPa 0 mm - - -
1788009209 20.56° C - 1015.8 hPa 0 mm - - -
1788008938 21.11° C - 1018.8 hPa 0 mm - - -
1788008906 21.11° C - 1018.8 hPa 0 mm - - -
1788008608 21.67° C - 1017.9 hPa 0 mm - - -
1788008604 21.67° C - 1017.9 hPa 0 mm - - -
1788008306 20.56° C - 1016.6 hPa 0 mm - - -

* Rain since midnight (hover to see other rain measurements)
** Current wind speed in m/s (hover to see current wind gust speed)